Time,TemperatureF,DewpointF,PressureIn,WindDirection,WindDirectionDegrees,WindSpeedMPH,WindSpeedGustMPH,Humidity,HourlyPrecipIn,Conditions,Clouds,dailyrainin,SoftwareType,DateUTC
2013-04-05 00:00:00,33.3,29.2,29.97,ESE,108,0.0,0.0,85,0.02,,-RA,0.00,VWS V14.00,2013-04-05 04:00:00,
2013-04-05 00:01:00,33.3,29.2,29.97,ESE,108,0.0,0.0,85,0.02,,-RA,0.00,VWS V14.00,2013-04-05 04:01:00,
2013-04-05 00:06:00,33.3,29.5,29.97,ESE,108,0.0,0.0,86,0.02,,-RA,0.00,VWS V14.00,2013-04-05 04:06:00,
2013-04-05 00:12:00,33.3,29.2,29.97,ESE,108,0.0,0.0,85,0.02,,-RA,0.00,VWS V14.00,2013-04-05 04:12:00,
2013-04-05 00:17:00,33.3,29.5,29.97,ESE,108,0.0,0.0,86,0.01,,-RA,0.00,VWS V14.00,2013-04-05 04:17:00,
2013-04-05 00:22:00,33.3,29.5,29.97,North,349,0.0,0.0,86,0.01,,-RA,0.00,VWS V14.00,2013-04-05 04:22:00,
2013-04-05 00:27:00,33.1,29.6,29.97,North,349,0.0,0.0,87,0.02,,-RA,0.01,VWS V14.00,2013-04-05 04:27:00,
2013-04-05 00:32:00,33.3,29.8,29.97,North,350,0.0,0.0,87,0.02,,-RA,0.01,VWS V14.00,2013-04-05 04:32:00,
2013-04-05 00:37:00,33.3,29.8,29.97,North,350,0.0,0.0,87,0.02,,-RA,0.01,VWS V14.00,2013-04-05 04:37:00,
2013-04-05 00:42:00,33.3,29.8,29.97,North,349,0.0,0.0,87,0.01,,-RA,0.01,VWS V14.00,2013-04-05 04:42:00,
2013-04-05 00:47:00,33.3,29.8,29.94,North,350,0.0,0.0,87,0.01,,-RA,0.01,VWS V14.00,2013-04-05 04:47:00,
2013-04-05 00:52:00,33.3,29.8,29.94,North,350,0.0,0.0,87,0.01,,-RA,0.01,VWS V14.00,2013-04-05 04:52:00,
2013-04-05 00:57:00,33.3,29.8,29.94,North,349,0.0,0.0,87,0.01,,-RA,0.01,VWS V14.00,2013-04-05 04:57:00,
2013-04-05 01:02:00,33.3,29.8,29.94,North,349,0.0,0.0,87,0.01,,-RA,0.01,VWS V14.00,2013-04-05 05:02:00,
2013-04-05 01:07:00,33.3,29.8,29.94,North,349,0.0,0.0,87,0.01,,-RA,0.01,VWS V14.00,2013-04-05 05:07:00,
2013-04-05 01:12:00,33.3,29.8,29.94,North,350,0.0,0.0,87,0.01,,-RA,0.01,VWS V14.00,2013-04-05 05:12:00,
2013-04-05 01:17:00,33.3,29.8,29.94,North,349,0.0,0.0,87,0.02,,-RA,0.02,VWS V14.00,2013-04-05 05:17:00,
2013-04-05 01:22:00,33.3,29.8,29.94,North,349,0.0,0.0,87,0.02,,-RA,0.02,VWS V14.00,2013-04-05 05:22:00,
2013-04-05 01:28:00,33.3,29.8,29.94,North,349,0.0,0.0,87,0.01,,-RA,0.02,VWS V14.00,2013-04-05 05:28:00,
2013-04-05 01:33:00,33.3,29.8,29.94,North,349,0.0,0.0,87,0.01,,-RA,0.02,VWS V14.00,2013-04-05 05:33:00,
2013-04-05 01:38:00,33.4,30.0,29.94,North,350,0.0,0.0,87,0.01,,-RA,0.02,VWS V14.00,2013-04-05 05:38:00,
2013-04-05 01:43:00,33.3,29.8,29.94,North,350,0.0,0.0,87,0.01,,-RA,0.02,VWS V14.00,2013-04-05 05:43:00,
2013-04-05 01:48:00,33.3,30.1,29.94,North,350,0.0,0.0,88,0.01,,-RA,0.02,VWS V14.00,2013-04-05 05:48:00,
2013-04-05 01:53:00,33.3,30.1,29.94,North,349,0.0,0.0,88,0.01,,-RA,0.02,VWS V14.00,2013-04-05 05:53:00,
2013-04-05 01:58:00,33.3,30.1,29.94,North,350,0.0,0.0,88,0.02,,-RA,0.03,VWS V14.00,2013-04-05 05:58:00,
2013-04-05 02:03:00,33.3,30.1,29.91,North,350,0.0,0.0,88,0.02,,-RA,0.03,VWS V14.00,2013-04-05 06:03:00,
2013-04-05 02:08:00,33.1,29.9,29.91,North,350,0.0,0.0,88,0.02,,-RA,0.03,VWS V14.00,2013-04-05 06:08:00,
2013-04-05 02:13:00,33.1,30.2,29.91,North,350,0.0,0.0,89,0.02,,-RA,0.03,VWS V14.00,2013-04-05 06:13:00,
2013-04-05 02:19:00,33.1,30.2,29.91,North,350,0.0,0.0,89,0.01,,-RA,0.03,VWS V14.00,2013-04-05 06:19:00,
2013-04-05 02:24:00,33.1,30.2,29.91,North,350,0.0,0.0,89,0.01,,-RA,0.03,VWS V14.00,2013-04-05 06:24:00,
2013-04-05 02:29:00,33.1,30.5,29.91,North,349,0.0,0.0,90,0.01,,-RA,0.03,VWS V14.00,2013-04-05 06:29:00,
2013-04-05 02:34:00,33.1,30.5,29.91,North,350,0.0,0.0,90,0.01,,-RA,0.03,VWS V14.00,2013-04-05 06:34:00,
2013-04-05 02:39:00,33.1,30.5,29.91,North,349,0.0,0.0,90,0.01,,-RA,0.03,VWS V14.00,2013-04-05 06:39:00,
2013-04-05 02:44:00,33.1,30.5,29.91,North,349,0.0,0.0,90,0.01,,-RA,0.03,VWS V14.00,2013-04-05 06:44:00,
2013-04-05 02:49:00,33.1,30.5,29.91,North,350,0.0,0.0,90,0.01,,-RA,0.03,VWS V14.00,2013-04-05 06:49:00,
2013-04-05 02:54:00,33.1,30.5,29.91,North,350,0.0,0.0,90,0.01,,-RA,0.03,VWS V14.00,2013-04-05 06:54:00,
2013-04-05 02:59:00,33.1,30.5,29.91,North,350,0.0,0.0,90,0.00,,-RA,0.03,VWS V14.00,2013-04-05 06:59:00,
2013-04-05 03:05:00,33.3,30.6,29.91,North,349,0.0,0.0,90,0.00,,-RA,0.03,VWS V14.00,2013-04-05 07:05:00,
2013-04-05 03:10:00,33.3,30.6,29.91,North,350,0.0,0.0,90,0.01,,-RA,0.04,VWS V14.00,2013-04-05 07:10:00,
2013-04-05 03:15:00,33.3,30.6,29.91,North,350,0.0,0.0,90,0.01,,-RA,0.04,VWS V14.00,2013-04-05 07:15:00,
2013-04-05 03:20:00,33.3,30.6,29.91,North,350,0.0,0.0,90,0.01,,-RA,0.04,VWS V14.00,2013-04-05 07:20:00,
2013-04-05 03:25:00,33.3,30.6,29.91,North,350,0.0,0.0,90,0.01,,-RA,0.04,VWS V14.00,2013-04-05 07:25:00,
2013-04-05 03:30:00,33.3,30.9,29.91,North,350,0.0,0.0,91,0.02,,-RA,0.05,VWS V14.00,2013-04-05 07:30:00,
2013-04-05 03:35:00,33.1,30.7,29.91,North,349,0.0,0.0,91,0.02,,-RA,0.05,VWS V14.00,2013-04-05 07:35:00,
2013-04-05 03:40:00,33.1,31.0,29.91,North,350,0.0,0.0,92,0.03,,-RA,0.06,VWS V14.00,2013-04-05 07:40:00,
2013-04-05 03:45:00,33.1,31.0,29.91,North,349,0.0,0.0,92,0.05,,-RA,0.08,VWS V14.00,2013-04-05 07:45:00,
2013-04-05 03:50:00,33.1,31.0,29.91,North,350,0.0,0.0,92,0.05,,-RA,0.08,VWS V14.00,2013-04-05 07:50:00,
2013-04-05 03:55:00,33.1,31.3,29.91,North,350,0.0,0.0,93,0.06,,-RA,0.09,VWS V14.00,2013-04-05 07:55:00,
2013-04-05 04:00:00,33.1,31.3,29.91,North,350,0.0,0.0,93,0.06,,-RA,0.09,VWS V14.00,2013-04-05 08:00:00,
2013-04-05 04:05:00,33.3,31.5,29.91,North,350,0.0,0.0,93,0.06,,-RA,0.09,VWS V14.00,2013-04-05 08:05:00,
2013-04-05 04:10:00,33.3,31.5,29.91,North,349,0.0,0.0,93,0.05,,-RA,0.09,VWS V14.00,2013-04-05 08:10:00,
2013-04-05 04:15:00,33.3,31.5,29.91,North,350,0.0,0.0,93,0.05,,-RA,0.09,VWS V14.00,2013-04-05 08:15:00,
2013-04-05 04:20:00,33.3,31.5,29.91,North,350,0.0,0.0,93,0.05,,-RA,0.09,VWS V14.00,2013-04-05 08:20:00,
2013-04-05 04:25:00,33.3,31.5,29.91,North,349,0.0,0.0,93,0.05,,-RA,0.09,VWS V14.00,2013-04-05 08:25:00,
2013-04-05 04:30:00,33.3,31.5,29.91,North,349,0.0,0.0,93,0.04,,-RA,0.09,VWS V14.00,2013-04-05 08:30:00,
2013-04-05 04:35:00,33.3,31.5,29.91,North,349,0.0,0.0,93,0.04,,-RA,0.09,VWS V14.00,2013-04-05 08:35:00,
2013-04-05 04:40:00,33.3,31.5,29.91,North,350,0.0,0.0,93,0.03,,-RA,0.09,VWS V14.00,2013-04-05 08:40:00,
2013-04-05 04:45:00,33.3,31.5,29.91,North,350,0.0,0.0,93,0.02,,-RA,0.10,VWS V14.00,2013-04-05 08:45:00,
2013-04-05 04:50:00,33.4,31.6,29.91,North,350,0.0,0.0,93,0.02,,-RA,0.10,VWS V14.00,2013-04-05 08:50:00,
2013-04-05 04:55:00,33.4,31.6,29.91,North,350,0.0,0.0,93,0.01,,-RA,0.10,VWS V14.00,2013-04-05 08:55:00,
2013-04-05 05:01:00,33.4,31.6,29.91,North,350,0.0,0.0,93,0.01,,-RA,0.10,VWS V14.00,2013-04-05 09:01:00,
2013-04-05 05:05:00,33.3,31.5,29.91,North,350,0.0,0.0,93,0.01,,-RA,0.10,VWS V14.00,2013-04-05 09:05:00,
2013-04-05 05:11:00,33.4,31.6,29.91,North,350,0.0,0.0,93,0.01,,-RA,0.10,VWS V14.00,2013-04-05 09:11:00,
2013-04-05 05:16:00,33.4,31.6,29.91,North,349,0.0,0.0,93,0.01,,-RA,0.10,VWS V14.00,2013-04-05 09:16:00,
2013-04-05 05:21:00,33.4,31.6,29.91,North,350,0.0,0.0,93,0.01,,-RA,0.10,VWS V14.00,2013-04-05 09:21:00,
2013-04-05 05:26:00,33.4,31.6,29.91,North,350,0.0,0.0,93,0.01,,-RA,0.10,VWS V14.00,2013-04-05 09:26:00,
2013-04-05 05:31:00,33.4,31.6,29.91,North,350,0.0,0.0,93,0.01,,-RA,0.10,VWS V14.00,2013-04-05 09:31:00,
2013-04-05 05:36:00,33.3,31.5,29.91,North,350,0.0,0.0,93,0.01,,-RA,0.10,VWS V14.00,2013-04-05 09:36:00,
2013-04-05 05:41:00,33.3,31.5,29.91,North,350,0.0,0.0,93,0.01,,-RA,0.10,VWS V14.00,2013-04-05 09:41:00,
2013-04-05 05:46:00,33.1,31.5,29.91,North,349,0.0,0.0,94,0.00,,-RA,0.10,VWS V14.00,2013-04-05 09:46:00,
2013-04-05 05:51:00,33.1,31.5,29.91,North,350,0.0,3.2,94,0.00,,-RA,0.10,VWS V14.00,2013-04-05 09:51:00,
2013-04-05 05:57:00,33.1,31.5,29.91,NNW,327,0.0,0.0,94,0.00,,-RA,0.10,VWS V14.00,2013-04-05 09:57:00,
2013-04-05 06:02:00,33.3,32.0,29.91,NNW,327,0.0,0.0,95,0.00,,-RA,0.10,VWS V14.00,2013-04-05 10:02:00,
2013-04-05 06:07:00,33.3,32.0,29.91,NNW,327,0.0,0.0,95,0.00,,-RA,0.10,VWS V14.00,2013-04-05 10:07:00,
2013-04-05 06:12:00,33.3,32.0,29.91,NNW,327,0.0,0.0,95,0.00,,-RA,0.10,VWS V14.00,2013-04-05 10:12:00,
2013-04-05 06:17:00,33.3,32.0,29.91,NNW,327,0.0,0.0,95,0.00,,-RA,0.10,VWS V14.00,2013-04-05 10:17:00,
2013-04-05 06:22:00,33.3,32.0,29.91,NW,315,0.0,0.0,95,0.00,,-RA,0.10,VWS V14.00,2013-04-05 10:22:00,
2013-04-05 06:27:00,33.3,32.0,29.91,SW,214,0.0,2.7,95,0.00,,-RA,0.10,VWS V14.00,2013-04-05 10:27:00,
2013-04-05 06:32:00,33.4,32.2,29.94,SW,214,0.0,0.0,95,0.00,,-RA,0.10,VWS V14.00,2013-04-05 10:32:00,
2013-04-05 06:37:00,33.3,32.0,29.94,South,177,0.0,0.0,95,0.00,,-RA,0.10,VWS V14.00,2013-04-05 10:37:00,
2013-04-05 06:42:00,33.4,32.2,29.94,South,177,0.0,0.0,95,0.00,,-RA,0.10,VWS V14.00,2013-04-05 10:42:00,
2013-04-05 06:47:00,33.3,32.0,29.94,SSE,161,0.0,0.0,95,0.00,,,0.10,VWS V14.00,2013-04-05 10:47:00,
2013-04-05 06:52:00,33.4,32.2,29.94,SSE,161,0.0,0.0,95,0.00,,,0.10,VWS V14.00,2013-04-05 10:52:00,
2013-04-05 06:58:00,33.3,32.0,29.94,SSE,161,0.0,0.0,95,0.00,,,0.10,VWS V14.00,2013-04-05 10:58:00,
2013-04-05 07:03:00,33.4,32.2,29.94,SSE,161,0.0,0.0,95,0.00,,,0.10,VWS V14.00,2013-04-05 11:03:00,
2013-04-05 07:08:00,33.4,32.2,29.94,SSE,161,0.0,0.0,95,0.00,,,0.10,VWS V14.00,2013-04-05 11:08:00,
2013-04-05 07:13:00,33.4,32.2,29.94,ESE,112,2.5,3.2,95,0.00,,,0.10,VWS V14.00,2013-04-05 11:13:00,
2013-04-05 07:18:00,33.4,32.2,29.91,South,176,0.0,0.0,95,0.00,,,0.10,VWS V14.00,2013-04-05 11:18:00,
2013-04-05 07:23:00,33.4,32.2,29.91,South,176,0.0,0.0,95,0.00,,,0.10,VWS V14.00,2013-04-05 11:23:00,
2013-04-05 07:28:00,33.4,32.2,29.91,SE,132,3.0,3.2,95,0.00,,,0.10,VWS V14.00,2013-04-05 11:28:00,
2013-04-05 07:33:00,33.3,32.0,29.91,NW,307,3.0,4.3,95,0.00,,,0.10,VWS V14.00,2013-04-05 11:33:00,
2013-04-05 07:38:00,33.3,32.0,29.91,ESE,117,0.0,0.0,95,0.00,,,0.10,VWS V14.00,2013-04-05 11:38:00,
2013-04-05 07:43:00,33.3,32.2,29.91,South,177,0.0,0.0,96,0.00,,,0.10,VWS V14.00,2013-04-05 11:43:00,
2013-04-05 07:48:00,33.4,32.4,29.94,SE,126,0.0,0.0,96,0.00,,,0.10,VWS V14.00,2013-04-05 11:48:00,
2013-04-05 07:53:00,33.4,32.4,29.94,East,84,0.0,0.0,96,0.00,,,0.10,VWS V14.00,2013-04-05 11:53:00,
2013-04-05 07:58:00,33.6,32.6,29.94,SSW,197,0.0,0.0,96,0.00,,,0.10,VWS V14.00,2013-04-05 11:58:00,
2013-04-05 08:03:00,33.6,32.6,29.94,SE,144,3.0,4.3,96,0.00,,,0.10,VWS V14.00,2013-04-05 12:03:00,
2013-04-05 08:09:00,33.8,32.8,29.94,East,83,0.0,0.0,96,0.00,,,0.10,VWS V14.00,2013-04-05 12:09:00,
2013-04-05 08:14:00,33.6,32.6,29.94,NW,317,2.5,2.7,96,0.00,,,0.10,VWS V14.00,2013-04-05 12:14:00,
2013-04-05 08:19:00,33.6,32.6,29.94,NNW,329,3.0,3.8,96,0.00,,,0.10,VWS V14.00,2013-04-05 12:19:00,
2013-04-05 08:24:00,33.6,32.6,29.94,ESE,123,3.4,3.8,96,0.00,,,0.10,VWS V14.00,2013-04-05 12:24:00,
2013-04-05 08:30:00,33.8,32.8,29.94,East,94,0.0,2.7,96,0.00,,,0.10,VWS V14.00,2013-04-05 12:30:00,
2013-04-05 08:35:00,33.8,32.8,29.94,West,274,2.5,2.7,96,0.00,,,0.10,VWS V14.00,2013-04-05 12:35:00,
2013-04-05 08:40:00,33.8,32.8,29.94,WNW,283,3.0,3.2,96,0.00,,,0.10,VWS V14.00,2013-04-05 12:40:00,
2013-04-05 08:45:00,34.0,33.0,29.94,North,7,0.0,3.2,96,0.00,,,0.10,VWS V14.00,2013-04-05 12:45:00,
2013-04-05 08:50:00,34.2,33.2,29.91,NW,325,2.5,3.2,96,0.00,,,0.10,VWS V14.00,2013-04-05 12:50:00,
2013-04-05 08:55:00,34.7,34.0,29.91,East,90,3.0,3.2,97,0.00,,,0.10,VWS V14.00,2013-04-05 12:55:00,
2013-04-05 09:00:00,35.1,34.3,29.91,SE,134,0.0,0.0,97,0.00,,,0.10,VWS V14.00,2013-04-05 13:00:00,
2013-04-05 09:05:00,35.8,35.1,29.91,ESE,115,3.4,3.8,97,0.00,,OVC004,0.10,VWS V14.00,2013-04-05 13:05:00,
2013-04-05 09:10:00,35.7,34.9,29.91,North,8,3.0,3.8,97,0.00,,OVC004,0.10,VWS V14.00,2013-04-05 13:10:00,
2013-04-05 09:15:00,36.2,35.7,29.91,North,8,0.0,0.0,98,0.00,,OVC009,0.10,VWS V14.00,2013-04-05 13:15:00,
2013-04-05 09:20:00,37.2,36.6,29.91,North,8,0.0,3.2,98,0.00,,OVC009,0.10,VWS V14.00,2013-04-05 13:20:00,
2013-04-05 09:26:00,37.5,37.0,29.91,North,8,0.0,0.0,98,0.00,,OVC009,0.10,VWS V14.00,2013-04-05 13:26:00,
2013-04-05 09:31:00,38.3,37.8,29.91,North,8,0.0,0.0,98,0.00,,OVC009,0.10,VWS V14.00,2013-04-05 13:31:00,
2013-04-05 09:36:00,39.0,38.5,29.91,North,8,0.0,0.0,98,0.00,,OVC009,0.10,VWS V14.00,2013-04-05 13:36:00,
2013-04-05 09:41:00,38.8,38.3,29.91,North,8,0.0,0.0,98,0.00,,OVC009,0.10,VWS V14.00,2013-04-05 13:41:00,
2013-04-05 09:46:00,38.6,38.1,29.91,North,8,0.0,0.0,98,0.00,,SCT011,0.10,VWS V14.00,2013-04-05 13:46:00,
2013-04-05 09:51:00,39.6,39.0,29.94,ENE,58,0.0,2.7,98,0.00,,SCT011,0.10,VWS V14.00,2013-04-05 13:51:00,
2013-04-05 09:56:00,39.6,38.5,29.94,WNW,283,2.5,4.3,96,0.00,,SCT011,0.10,VWS V14.00,2013-04-05 13:56:00,
2013-04-05 10:01:00,40.5,38.3,29.94,WNW,283,0.0,2.7,92,0.00,,BKN019,0.10,VWS V14.00,2013-04-05 14:01:00,
2013-04-05 10:06:00,40.9,36.1,29.94,NW,326,6.4,7.5,83,0.00,,BKN019,0.10,VWS V14.00,2013-04-05 14:06:00,
2013-04-05 10:11:00,41.0,34.4,29.94,WNW,284,2.5,2.7,77,0.00,,BKN019,0.10,VWS V14.00,2013-04-05 14:11:00,
2013-04-05 10:16:00,41.2,34.2,29.94,West,275,3.0,4.8,76,0.00,,SCT019,0.10,VWS V14.00,2013-04-05 14:16:00,
2013-04-05 10:21:00,41.4,33.8,29.94,West,273,3.0,3.8,74,0.00,,SCT019,0.10,VWS V14.00,2013-04-05 14:21:00,
2013-04-05 10:27:00,42.0,34.3,29.94,WSW,252,3.4,4.3,74,0.00,,SCT019,0.10,VWS V14.00,2013-04-05 14:27:00,
2013-04-05 10:32:00,42.0,33.3,29.94,NW,307,3.9,4.8,71,0.00,,SCT019,0.10,VWS V14.00,2013-04-05 14:32:00,
2013-04-05 10:37:00,42.2,29.7,29.94,NW,305,5.9,7.0,61,0.00,,SCT019,0.10,VWS V14.00,2013-04-05 14:37:00,
2013-04-05 10:42:00,41.8,28.1,29.94,NW,318,3.9,5.9,58,0.00,,SCT019,0.10,VWS V14.00,2013-04-05 14:42:00,
2013-04-05 10:47:00,41.2,29.2,29.94,WNW,295,5.4,7.0,62,0.00,,SCT019,0.10,VWS V14.00,2013-04-05 14:47:00,
2013-04-05 10:52:00,42.0,28.7,29.94,NW,318,4.4,5.4,59,0.00,,SCT019,0.10,VWS V14.00,2013-04-05 14:52:00,
2013-04-05 10:57:00,43.6,29.0,29.94,WNW,298,0.0,2.7,56,0.00,,SCT019,0.10,VWS V14.00,2013-04-05 14:57:00,
2013-04-05 11:02:00,44.4,30.1,29.94,NW,321,3.9,4.3,57,0.00,,SCT020,0.10,VWS V14.00,2013-04-05 15:02:00,
2013-04-05 11:07:00,44.9,28.9,29.94,NNW,339,3.0,4.3,53,0.00,,SCT020,0.10,VWS V14.00,2013-04-05 15:07:00,
2013-04-05 11:12:00,45.7,28.1,29.94,NNW,339,0.0,0.0,50,0.00,,SCT020,0.10,VWS V14.00,2013-04-05 15:12:00,
2013-04-05 11:17:00,46.6,28.5,29.94,SW,233,3.4,4.3,49,0.00,,SCT020,0.10,VWS V14.00,2013-04-05 15:17:00,
2013-04-05 11:22:00,46.8,28.7,29.94,NNW,332,8.4,9.9,49,0.00,,SCT020,0.10,VWS V14.00,2013-04-05 15:22:00,
2013-04-05 11:28:00,47.0,27.8,29.94,NNW,345,9.1,15.8,47,0.00,,SCT020,0.10,VWS V14.00,2013-04-05 15:28:00,
2013-04-05 11:33:00,47.5,27.3,29.94,NNW,339,8.9,10.5,45,0.00,,SCT020,0.10,VWS V14.00,2013-04-05 15:33:00,
2013-04-05 11:38:00,47.5,27.8,29.94,NNW,341,13.5,14.8,46,0.00,,SCT020,0.10,VWS V14.00,2013-04-05 15:38:00,
2013-04-05 11:43:00,47.9,27.1,29.94,NW,308,8.4,9.1,44,0.00,,SCT020,0.10,VWS V14.00,2013-04-05 15:43:00,
2013-04-05 11:48:00,47.7,26.9,29.94,NNW,327,9.1,13.2,44,0.00,,SCT020,0.10,VWS V14.00,2013-04-05 15:48:00,
2013-04-05 11:53:00,48.3,26.3,29.94,NNW,345,4.4,9.7,42,0.00,,SCT020,0.10,VWS V14.00,2013-04-05 15:53:00,
2013-04-05 11:58:00,48.5,26.4,29.94,NNW,329,6.9,9.7,42,0.00,,SCT020,0.10,VWS V14.00,2013-04-05 15:58:00,
2013-04-05 12:03:00,49.0,27.5,29.94,NW,315,10.6,12.6,43,0.00,,CLR,0.10,VWS V14.00,2013-04-05 16:03:00,
2013-04-05 12:08:00,49.2,27.1,29.94,WNW,286,9.1,9.9,42,0.00,,CLR,0.10,VWS V14.00,2013-04-05 16:08:00,
2013-04-05 12:13:00,49.4,26.7,29.94,NNW,335,3.4,6.4,41,0.00,,CLR,0.10,VWS V14.00,2013-04-05 16:13:00,
2013-04-05 12:18:00,49.8,27.6,29.94,NW,319,11.1,12.6,42,0.00,,CLR,0.10,VWS V14.00,2013-04-05 16:18:00,
2013-04-05 12:24:00,50.1,27.4,29.94,WNW,300,14.0,15.3,41,0.00,,CLR,0.10,VWS V14.00,2013-04-05 16:24:00,
2013-04-05 12:29:00,50.7,29.0,29.94,NW,318,14.0,18.5,43,0.00,,CLR,0.10,VWS V14.00,2013-04-05 16:29:00,
2013-04-05 12:34:00,50.9,28.0,29.94,WNW,296,20.2,22.0,41,0.00,,CLR,0.10,VWS V14.00,2013-04-05 16:34:00,
2013-04-05 12:39:00,51.4,29.1,29.94,NNW,333,12.1,20.9,42,0.00,,CLR,0.10,VWS V14.00,2013-04-05 16:39:00,
2013-04-05 12:44:00,51.4,26.0,29.94,NW,326,18.7,20.9,37,0.00,,CLR,0.10,VWS V14.00,2013-04-05 16:44:00,
2013-04-05 12:49:00,52.0,27.8,29.91,NW,321,8.9,20.1,39,0.00,,CLR,0.10,VWS V14.00,2013-04-05 16:49:00,
2013-04-05 12:54:00,52.3,27.5,29.91,NNW,332,14.5,20.1,38,0.00,,CLR,0.10,VWS V14.00,2013-04-05 16:54:00,
2013-04-05 13:00:00,52.9,28.6,29.91,WNW,290,9.6,15.8,39,0.00,,CLR,0.10,VWS V14.00,2013-04-05 17:00:00,
2013-04-05 13:05:00,52.9,27.4,29.91,NW,322,9.1,13.2,37,0.00,,CLR,0.10,VWS V14.00,2013-04-05 17:05:00,
2013-04-05 13:10:00,53.7,28.7,29.91,WNW,289,12.1,18.5,38,0.00,,CLR,0.10,VWS V14.00,2013-04-05 17:10:00,
2013-04-05 13:15:00,53.8,30.1,29.91,WNW,293,12.1,16.4,40,0.00,,CLR,0.10,VWS V14.00,2013-04-05 17:15:00,
2013-04-05 13:20:00,54.0,29.0,29.91,WNW,285,9.6,18.5,38,0.00,,CLR,0.10,VWS V14.00,2013-04-05 17:20:00,
2013-04-05 13:26:00,54.4,29.3,29.91,WNW,293,9.1,15.8,38,0.00,,CLR,0.10,VWS V14.00,2013-04-05 17:26:00,
2013-04-05 13:31:00,55.0,29.2,29.91,NW,305,16.5,18.0,37,0.00,,CLR,0.10,VWS V14.00,2013-04-05 17:31:00,
2013-04-05 13:36:00,55.0,29.2,29.91,West,280,8.4,13.2,37,0.00,,CLR,0.10,VWS V14.00,2013-04-05 17:36:00,
2013-04-05 13:41:00,55.1,28.7,29.91,NNW,333,9.6,14.8,36,0.00,,CLR,0.10,VWS V14.00,2013-04-05 17:41:00,
2013-04-05 13:46:00,55.0,28.5,29.91,WNW,294,12.1,15.3,36,0.00,,CLR,0.10,VWS V14.00,2013-04-05 17:46:00,
2013-04-05 13:51:00,55.0,27.8,29.91,NW,324,6.9,9.1,35,0.00,,CLR,0.10,VWS V14.00,2013-04-05 17:51:00,
2013-04-05 13:56:00,55.5,28.3,29.91,NW,315,14.0,20.9,35,0.00,,CLR,0.10,VWS V14.00,2013-04-05 17:56:00,
2013-04-05 14:01:00,56.1,28.8,29.91,NW,321,14.0,19.6,35,0.00,,CLR,0.10,VWS V14.00,2013-04-05 18:01:00,
2013-04-05 14:06:00,56.6,29.3,29.91,NNW,330,14.5,18.0,35,0.00,,CLR,0.10,VWS V14.00,2013-04-05 18:06:00,
2013-04-05 14:11:00,56.2,27.5,29.91,NW,319,8.9,13.2,33,0.00,,CLR,0.10,VWS V14.00,2013-04-05 18:11:00,
2013-04-05 14:17:00,56.6,27.9,29.91,NNW,341,6.9,18.5,33,0.00,,CLR,0.10,VWS V14.00,2013-04-05 18:17:00,
2013-04-05 14:22:00,57.0,28.2,29.91,NW,317,14.5,27.4,33,0.00,,CLR,0.10,VWS V14.00,2013-04-05 18:22:00,
2013-04-05 14:27:00,57.0,28.9,29.91,WNW,285,9.1,9.9,34,0.00,,CLR,0.10,VWS V14.00,2013-04-05 18:27:00,
2013-04-05 14:32:00,57.0,27.5,29.91,NW,313,14.5,15.8,32,0.00,,CLR,0.10,VWS V14.00,2013-04-05 18:32:00,
2013-04-05 14:37:00,57.4,30.0,29.91,NW,304,21.7,23.6,35,0.00,,CLR,0.10,VWS V14.00,2013-04-05 18:37:00,
2013-04-05 14:42:00,57.4,30.0,29.91,NW,325,9.1,12.1,35,0.00,,CLR,0.10,VWS V14.00,2013-04-05 18:42:00,
2013-04-05 14:48:00,57.5,29.4,29.88,NW,304,19.7,21.5,34,0.00,,CLR,0.10,VWS V14.00,2013-04-05 18:48:00,
2013-04-05 14:53:00,57.9,30.5,29.88,NW,316,31.2,34.1,35,0.00,,CLR,0.10,VWS V14.00,2013-04-05 18:53:00,
2013-04-05 14:58:00,57.5,30.1,29.88,WNW,300,25.1,27.4,35,0.00,,CLR,0.10,VWS V14.00,2013-04-05 18:58:00,
2013-04-05 15:03:00,57.2,29.1,29.91,NNW,340,18.5,23.6,34,0.00,,CLR,0.10,VWS V14.00,2013-04-05 19:03:00,
2013-04-05 15:08:00,57.9,30.5,29.91,NW,324,16.5,24.2,35,0.00,,CLR,0.10,VWS V14.00,2013-04-05 19:08:00,
2013-04-05 15:13:00,57.4,28.5,29.91,NNW,340,18.0,19.6,33,0.00,,CLR,0.10,VWS V14.00,2013-04-05 19:13:00,
2013-04-05 15:18:00,57.9,29.7,29.88,North,353,14.5,19.6,34,0.00,,CLR,0.10,VWS V14.00,2013-04-05 19:18:00,
2013-04-05 15:23:00,58.3,30.1,29.88,North,349,18.5,20.1,34,0.00,,CLR,0.10,VWS V14.00,2013-04-05 19:23:00,
2013-04-05 15:28:00,57.9,29.0,29.88,NNW,327,11.1,15.3,33,0.00,,CLR,0.10,VWS V14.00,2013-04-05 19:28:00,
2013-04-05 15:34:00,58.1,30.6,29.91,NNW,329,8.4,13.2,35,0.00,,CLR,0.10,VWS V14.00,2013-04-05 19:34:00,
2013-04-05 15:39:00,58.5,30.9,29.91,NNW,340,14.5,18.5,35,0.00,,CLR,0.10,VWS V14.00,2013-04-05 19:39:00,
2013-04-05 15:44:00,59.0,30.7,29.91,North,0,6.9,15.3,34,0.00,,CLR,0.10,VWS V14.00,2013-04-05 19:44:00,
2013-04-05 15:49:00,58.7,30.4,29.88,WNW,298,12.1,14.8,34,0.00,,CLR,0.10,VWS V14.00,2013-04-05 19:49:00,
2013-04-05 15:54:00,59.4,31.0,29.88,NNW,331,10.1,11.0,34,0.00,,CLR,0.10,VWS V14.00,2013-04-05 19:54:00,
2013-04-05 15:59:00,58.8,31.3,29.88,NW,317,11.6,15.3,35,0.00,,CLR,0.10,VWS V14.00,2013-04-05 19:59:00,
2013-04-05 16:04:00,58.7,31.1,29.88,NW,314,15.0,18.5,35,0.00,,CLR,0.10,VWS V14.00,2013-04-05 20:04:00,
2013-04-05 16:10:00,58.5,30.2,29.88,West,272,15.5,16.9,34,0.00,,CLR,0.10,VWS V14.00,2013-04-05 20:10:00,
2013-04-05 16:15:00,57.7,30.3,29.88,WNW,301,11.6,12.6,35,0.00,,CLR,0.10,VWS V14.00,2013-04-05 20:15:00,
2013-04-05 16:20:00,58.3,30.8,29.88,WNW,295,10.6,12.1,35,0.00,,CLR,0.10,VWS V14.00,2013-04-05 20:20:00,
2013-04-05 16:25:00,58.3,30.8,29.88,NW,321,11.1,13.2,35,0.00,,CLR,0.10,VWS V14.00,2013-04-05 20:25:00,
2013-04-05 16:30:00,58.1,29.2,29.88,NW,312,11.6,14.8,33,0.00,,CLR,0.10,VWS V14.00,2013-04-05 20:30:00,
2013-04-05 16:35:00,57.7,29.6,29.88,West,268,16.5,18.0,34,0.00,,CLR,0.10,VWS V14.00,2013-04-05 20:35:00,
2013-04-05 16:40:00,57.5,28.7,29.88,NW,306,5.9,19.6,33,0.00,,CLR,0.10,VWS V14.00,2013-04-05 20:40:00,
2013-04-05 16:45:00,57.5,29.4,29.88,West,280,16.5,18.0,34,0.00,,CLR,0.10,VWS V14.00,2013-04-05 20:45:00,
2013-04-05 16:51:00,57.7,29.6,29.91,NW,316,16.0,17.4,34,0.00,,CLR,0.10,VWS V14.00,2013-04-05 20:51:00,
2013-04-05 16:56:00,57.5,29.4,29.91,WNW,299,19.2,20.9,34,0.00,,CLR,0.10,VWS V14.00,2013-04-05 20:56:00,
2013-04-05 17:01:00,57.4,28.5,29.91,NW,305,17.0,21.5,33,0.00,,CLR,0.10,VWS V14.00,2013-04-05 21:01:00,
2013-04-05 17:06:00,57.5,29.4,29.91,WNW,300,21.7,23.6,34,0.00,,CLR,0.10,VWS V14.00,2013-04-05 21:06:00,
2013-04-05 17:12:00,57.4,29.2,29.91,NW,312,20.7,22.5,34,0.00,,CLR,0.10,VWS V14.00,2013-04-05 21:12:00,
2013-04-05 17:17:00,57.4,29.2,29.91,NW,306,20.7,22.5,34,0.00,,CLR,0.10,VWS V14.00,2013-04-05 21:17:00,
2013-04-05 17:22:00,57.5,28.7,29.91,NNW,334,14.5,19.1,33,0.00,,CLR,0.10,VWS V14.00,2013-04-05 21:22:00,
2013-04-05 17:27:00,57.4,27.8,29.91,NNW,335,12.1,18.0,32,0.00,,CLR,0.10,VWS V14.00,2013-04-05 21:27:00,
2013-04-05 17:32:00,57.4,27.8,29.91,NW,320,14.0,17.4,32,0.00,,CLR,0.10,VWS V14.00,2013-04-05 21:32:00,
2013-04-05 17:37:00,57.4,28.5,29.91,WNW,297,14.0,18.0,33,0.00,,CLR,0.10,VWS V14.00,2013-04-05 21:37:00,
2013-04-05 17:42:00,56.6,27.9,29.91,NW,307,17.0,22.5,33,0.00,,CLR,0.10,VWS V14.00,2013-04-05 21:42:00,
2013-04-05 17:47:00,56.6,27.9,29.91,NW,312,17.0,20.4,33,0.00,,CLR,0.10,VWS V14.00,2013-04-05 21:47:00,
2013-04-05 17:52:00,56.4,27.7,29.91,WNW,290,19.2,23.6,33,0.00,,CLR,0.10,VWS V14.00,2013-04-05 21:52:00,
2013-04-05 17:58:00,56.1,25.9,29.91,NW,318,15.0,20.4,31,0.00,,CLR,0.10,VWS V14.00,2013-04-05 21:58:00,
2013-04-05 18:03:00,56.4,27.7,29.91,NW,317,17.0,23.1,33,0.00,,CLR,0.10,VWS V14.00,2013-04-05 22:03:00,
2013-04-05 18:08:00,56.2,27.5,29.91,NNW,330,12.1,13.2,33,0.00,,CLR,0.10,VWS V14.00,2013-04-05 22:08:00,
2013-04-05 18:13:00,55.9,27.2,29.91,WNW,289,12.1,15.3,33,0.00,,CLR,0.10,VWS V14.00,2013-04-05 22:13:00,
2013-04-05 18:18:00,55.9,27.2,29.91,NW,315,7.9,13.7,33,0.00,,CLR,0.10,VWS V14.00,2013-04-05 22:18:00,
2013-04-05 18:23:00,55.9,27.9,29.91,NW,304,14.0,15.8,34,0.00,,CLR,0.10,VWS V14.00,2013-04-05 22:23:00,
2013-04-05 18:28:00,55.5,26.9,29.91,NW,305,11.1,12.1,33,0.00,,CLR,0.10,VWS V14.00,2013-04-05 22:28:00,
2013-04-05 18:33:00,55.3,26.7,29.94,NW,312,14.5,15.8,33,0.00,,CLR,0.10,VWS V14.00,2013-04-05 22:33:00,
2013-04-05 18:38:00,55.0,26.4,29.94,NW,312,17.5,19.1,33,0.00,,CLR,0.10,VWS V14.00,2013-04-05 22:38:00,
2013-04-05 18:43:00,54.8,26.2,29.94,NW,308,14.0,20.9,33,0.00,,CLR,0.10,VWS V14.00,2013-04-05 22:43:00,
2013-04-05 18:48:00,54.4,25.9,29.94,NW,324,19.2,20.9,33,0.00,,CLR,0.10,VWS V14.00,2013-04-05 22:48:00,
2013-04-05 18:53:00,54.6,25.3,29.94,NW,319,14.0,20.1,32,0.00,,CLR,0.10,VWS V14.00,2013-04-05 22:53:00,
2013-04-05 18:59:00,54.2,25.8,29.94,NW,311,8.4,9.9,33,0.00,,CLR,0.10,VWS V14.00,2013-04-05 22:59:00,
2013-04-05 19:04:00,54.4,25.2,29.94,NW,305,6.9,7.5,32,0.00,,CLR,0.10,VWS V14.00,2013-04-05 23:04:00,
2013-04-05 19:09:00,53.3,25.6,29.94,NW,308,16.0,18.5,34,0.00,,CLR,0.10,VWS V14.00,2013-04-05 23:09:00,
2013-04-05 19:14:00,52.9,25.3,29.94,NW,318,9.6,10.5,34,0.00,,CLR,0.10,VWS V14.00,2013-04-05 23:14:00,
2013-04-05 19:19:00,52.7,24.4,29.94,NW,316,17.0,18.5,33,0.00,,CLR,0.10,VWS V14.00,2013-04-05 23:19:00,
2013-04-05 19:24:00,52.9,23.9,29.94,NW,318,9.1,12.1,32,0.00,,CLR,0.10,VWS V14.00,2013-04-05 23:24:00,
2013-04-05 19:29:00,52.0,24.5,29.94,NW,321,11.6,12.6,34,0.00,,CLR,0.10,VWS V14.00,2013-04-05 23:29:00,
2013-04-05 19:34:00,51.2,23.9,29.94,NW,317,8.9,10.5,34,0.00,,CLR,0.10,VWS V14.00,2013-04-05 23:34:00,
2013-04-05 19:39:00,51.6,24.2,29.94,NW,312,5.4,7.0,34,0.00,,CLR,0.10,VWS V14.00,2013-04-05 23:39:00,
2013-04-05 19:45:00,51.1,23.7,29.94,WNW,301,5.4,5.9,34,0.00,,CLR,0.10,VWS V14.00,2013-04-05 23:45:00,
2013-04-05 19:50:00,51.2,23.9,29.94,West,277,5.9,6.4,34,0.00,,CLR,0.10,VWS V14.00,2013-04-05 23:50:00,
2013-04-05 19:55:00,50.7,24.0,29.94,WNW,286,11.1,12.1,35,0.00,,CLR,0.10,VWS V14.00,2013-04-05 23:55:00,
2013-04-05 20:00:00,50.3,23.7,29.94,NW,304,12.1,13.2,35,0.00,,CLR,0.10,VWS V14.00,2013-04-06 00:00:00,
2013-04-05 20:05:00,50.7,24.0,29.97,WNW,299,6.4,7.0,35,0.00,,CLR,0.10,VWS V14.00,2013-04-06 00:05:00,
2013-04-05 20:10:00,49.8,23.2,29.97,West,281,5.9,6.4,35,0.00,,CLR,0.10,VWS V14.00,2013-04-06 00:10:00,
2013-04-05 20:15:00,49.6,23.7,29.97,West,270,3.4,4.8,36,0.00,,CLR,0.10,VWS V14.00,2013-04-06 00:15:00,
2013-04-05 20:20:00,49.4,23.6,29.97,West,272,3.0,3.8,36,0.00,,CLR,0.10,VWS V14.00,2013-04-06 00:20:00,
2013-04-05 20:25:00,49.8,23.9,29.97,NW,307,4.4,7.0,36,0.00,,CLR,0.10,VWS V14.00,2013-04-06 00:25:00,
2013-04-05 20:30:00,49.2,23.4,29.97,WNW,286,0.0,2.7,36,0.00,,CLR,0.10,VWS V14.00,2013-04-06 00:30:00,
2013-04-05 20:35:00,49.0,23.2,29.97,NNW,327,0.0,0.0,36,0.00,,CLR,0.10,VWS V14.00,2013-04-06 00:35:00,
2013-04-05 20:40:00,48.8,23.1,29.97,NNW,327,0.0,0.0,36,0.00,,CLR,0.10,VWS V14.00,2013-04-06 00:40:00,
2013-04-05 20:45:00,48.8,23.1,29.97,NNW,327,0.0,0.0,36,0.00,,CLR,0.10,VWS V14.00,2013-04-06 00:45:00,
2013-04-05 20:50:00,48.7,22.9,29.97,NNW,327,0.0,0.0,36,0.00,,CLR,0.10,VWS V14.00,2013-04-06 00:50:00,
2013-04-05 20:55:00,47.9,22.9,29.97,NW,326,3.4,3.8,37,0.00,,CLR,0.10,VWS V14.00,2013-04-06 00:55:00,
2013-04-05 21:00:00,47.2,22.2,29.97,NNW,338,2.5,2.7,37,0.00,,CLR,0.10,VWS V14.00,2013-04-06 01:00:00,
2013-04-05 21:05:00,47.2,22.2,29.97,NE,47,2.5,3.2,37,0.00,,CLR,0.10,VWS V14.00,2013-04-06 01:05:00,
2013-04-05 21:10:00,47.0,22.7,29.97,North,353,3.0,3.2,38,0.00,,CLR,0.10,VWS V14.00,2013-04-06 01:10:00,
2013-04-05 21:16:00,46.4,22.2,29.97,North,353,0.0,0.0,38,0.00,,CLR,0.10,VWS V14.00,2013-04-06 01:16:00,
2013-04-05 21:21:00,46.2,22.0,30.00,North,353,2.5,2.7,38,0.00,,CLR,0.10,VWS V14.00,2013-04-06 01:21:00,
2013-04-05 21:26:00,45.9,22.3,30.00,North,353,0.0,0.0,39,0.00,,CLR,0.10,VWS V14.00,2013-04-06 01:26:00,
2013-04-05 21:31:00,45.1,21.7,30.00,North,353,2.5,2.7,39,0.00,,CLR,0.10,VWS V14.00,2013-04-06 01:31:00,
2013-04-05 21:36:00,44.8,21.9,30.00,NNE,23,2.5,3.8,40,0.00,,CLR,0.10,VWS V14.00,2013-04-06 01:36:00,
2013-04-05 21:42:00,44.0,21.8,30.00,NNE,30,3.0,3.2,41,0.00,,CLR,0.10,VWS V14.00,2013-04-06 01:42:00,
2013-04-05 21:47:00,43.5,21.9,30.00,NNW,343,0.0,2.7,42,0.00,,CLR,0.10,VWS V14.00,2013-04-06 01:47:00,
2013-04-05 21:52:00,43.5,21.9,30.00,NNE,15,2.5,3.2,42,0.00,,CLR,0.10,VWS V14.00,2013-04-06 01:52:00,
2013-04-05 21:57:00,43.6,22.6,30.00,North,3,3.0,3.2,43,0.00,,CLR,0.10,VWS V14.00,2013-04-06 01:57:00,
2013-04-05 22:02:00,43.3,22.3,30.00,North,4,2.5,2.7,43,0.00,,CLR,0.10,VWS V14.00,2013-04-06 02:02:00,
2013-04-05 22:07:00,43.1,22.1,30.00,NE,47,3.0,3.2,43,0.00,,CLR,0.10,VWS V14.00,2013-04-06 02:07:00,
2013-04-05 22:13:00,43.1,22.1,30.00,NE,54,3.4,3.8,43,0.00,,CLR,0.10,VWS V14.00,2013-04-06 02:13:00,
2013-04-05 22:18:00,42.7,22.3,30.00,NNE,17,0.0,0.0,44,0.00,,CLR,0.10,VWS V14.00,2013-04-06 02:18:00,
2013-04-05 22:23:00,42.3,22.0,30.00,NNE,20,0.0,2.7,44,0.00,,CLR,0.10,VWS V14.00,2013-04-06 02:23:00,
2013-04-05 22:28:00,42.3,22.0,30.00,NE,44,3.0,3.2,44,0.00,,CLR,0.10,VWS V14.00,2013-04-06 02:28:00,
2013-04-05 22:33:00,42.7,22.3,30.03,North,10,2.5,3.8,44,0.00,,CLR,0.10,VWS V14.00,2013-04-06 02:33:00,
2013-04-05 22:38:00,42.5,22.2,30.03,ENE,59,3.4,4.3,44,0.00,,CLR,0.10,VWS V14.00,2013-04-06 02:38:00,
2013-04-05 22:43:00,42.0,22.2,30.03,ENE,72,3.0,4.3,45,0.00,,CLR,0.10,VWS V14.00,2013-04-06 02:43:00,
2013-04-05 22:48:00,41.8,22.0,30.03,NE,52,3.0,3.8,45,0.00,,CLR,0.10,VWS V14.00,2013-04-06 02:48:00,
2013-04-05 22:53:00,42.0,22.2,30.03,NE,37,2.5,2.7,45,0.00,,CLR,0.10,VWS V14.00,2013-04-06 02:53:00,
2013-04-05 22:59:00,42.5,22.7,30.03,NNE,12,2.5,3.8,45,0.00,,CLR,0.10,VWS V14.00,2013-04-06 02:59:00,
2013-04-05 23:04:00,42.2,22.4,30.03,NNE,26,2.5,2.7,45,0.00,,CLR,0.10,VWS V14.00,2013-04-06 03:04:00,
2013-04-05 23:09:00,42.7,22.9,30.03,NE,53,2.5,3.2,45,0.00,,CLR,0.10,VWS V14.00,2013-04-06 03:09:00,
2013-04-05 23:14:00,41.8,22.0,30.03,ENE,76,3.9,4.8,45,0.00,,CLR,0.10,VWS V14.00,2013-04-06 03:14:00,
2013-04-05 23:19:00,40.9,21.7,30.03,ENE,78,3.0,3.8,46,0.00,,CLR,0.10,VWS V14.00,2013-04-06 03:19:00,
2013-04-05 23:25:00,40.9,22.2,30.03,East,83,2.5,2.7,47,0.00,,CLR,0.10,VWS V14.00,2013-04-06 03:25:00,
2013-04-05 23:30:00,40.9,22.2,30.03,East,83,3.0,3.2,47,0.00,,CLR,0.10,VWS V14.00,2013-04-06 03:30:00,
2013-04-05 23:35:00,40.7,22.0,30.03,South,184,2.5,2.7,47,0.00,,CLR,0.10,VWS V14.00,2013-04-06 03:35:00,
2013-04-05 23:40:00,40.5,22.4,30.03,South,187,0.0,0.0,48,0.00,,CLR,0.10,VWS V14.00,2013-04-06 03:40:00,
2013-04-05 23:45:00,40.5,22.4,30.03,South,187,0.0,0.0,48,0.00,,CLR,0.10,VWS V14.00,2013-04-06 03:45:00,
2013-04-05 23:50:00,40.5,22.4,30.03,South,187,0.0,0.0,48,0.00,,CLR,0.10,VWS V14.00,2013-04-06 03:50:00,
2013-04-05 23:55:00,40.5,22.4,30.03,South,187,0.0,0.0,48,0.00,,CLR,0.10,VWS V14.00,2013-04-06 03:55:00,